TAP68JP LPMA-LPPT

Flight info

Callsign TAP68JP
Flight time 1h 12m
Altitude 36000
Route DEGUN1E DEGUN DCT NARTA DCT ESUTI ESUTI1A
Aircraft A20N/M-SDE2E3FGHIRWXY/LB1

Departure

Time 2026-05-07 14:50
Airport Cristiano Ronaldo International Airport (LPMA)

Arrival

Time 2026-05-07 16:03
Airport Lisbon Humberto Delgado Airport (LPPT)
Time Latitude Longitude Altitude Speed Heading
2026-05-07 14:23 32.69409 -16.77588 169 ft 0 kts 138°
2026-05-07 14:42 32.69425 -16.77605 169 ft 4 kts 139°
2026-05-07 14:42 32.69446 -16.77625 169 ft 4 kts 149°
2026-05-07 14:42 32.69468 -16.77634 169 ft 4 kts 214°
2026-05-07 14:43 32.69472 -16.77631 169 ft 1 kts 226°
2026-05-07 14:46 32.69471 -16.77632 169 ft 1 kts 226°
2026-05-07 14:46 32.69460 -16.77646 169 ft 6 kts 226°
2026-05-07 14:46 32.69408 -16.77709 169 ft 15 kts 225°
2026-05-07 14:46 32.69324 -16.77810 169 ft 19 kts 225°
2026-05-07 14:47 32.69286 -16.77913 169 ft 12 kts 270°
2026-05-07 14:47 32.69282 -16.78026 168 ft 15 kts 259°
2026-05-07 14:47 32.69195 -16.78137 165 ft 22 kts 225°
2026-05-07 14:47 32.69068 -16.78287 157 ft 27 kts 224°
2026-05-07 14:48 32.68940 -16.78399 153 ft 17 kts 194°
2026-05-07 14:48 32.68902 -16.78469 153 ft 10 kts 335°
2026-05-07 14:48 32.68933 -16.78448 153 ft 0 kts 44°
2026-05-07 14:49 32.69018 -16.78350 154 ft 50 kts 44°
2026-05-07 14:49 32.69278 -16.78041 168 ft 97 kts 45°
2026-05-07 14:50 32.69896 -16.77321 188 ft 149 kts 44°
2026-05-07 14:50 32.70696 -16.76402 742 ft 149 kts 50°
2026-05-07 14:50 32.71130 -16.75369 1270 ft 154 kts 85°
2026-05-07 14:50 32.71075 -16.74088 1783 ft 158 kts 109°
2026-05-07 14:51 32.70519 -16.72909 2193 ft 173 kts 122°
2026-05-07 14:51 32.69928 -16.71575 2571 ft 194 kts 116°
2026-05-07 14:51 32.69376 -16.69988 3031 ft 216 kts 112°
2026-05-07 14:51 32.68835 -16.68215 3483 ft 240 kts 110°
2026-05-07 14:52 32.68266 -16.66260 4027 ft 261 kts 110°
2026-05-07 14:52 32.67659 -16.64171 4769 ft 272 kts 110°
2026-05-07 14:52 32.67029 -16.62017 5602 ft 280 kts 110°
2026-05-07 14:52 32.66378 -16.59808 6421 ft 288 kts 110°
2026-05-07 14:53 32.65713 -16.57548 7251 ft 292 kts 108°
2026-05-07 14:53 32.65493 -16.55131 8061 ft 300 kts 83°
2026-05-07 14:53 32.66137 -16.52805 8817 ft 305 kts 57°
2026-05-07 14:53 32.67503 -16.50865 9573 ft 310 kts 40°
2026-05-07 14:54 32.69152 -16.49176 10297 ft 318 kts 36°
2026-05-07 14:54 32.70911 -16.47445 10633 ft 341 kts 37°
2026-05-07 14:54 32.72758 -16.45533 10931 ft 362 kts 39°
2026-05-07 14:54 32.74635 -16.43476 11586 ft 370 kts 40°
2026-05-07 14:55 32.76536 -16.41324 12370 ft 375 kts 40°
2026-05-07 14:55 32.78427 -16.39159 13111 ft 380 kts 40°
2026-05-07 14:55 32.80337 -16.36964 13857 ft 385 kts 40°
2026-05-07 14:55 32.82278 -16.34734 14495 ft 390 kts 40°
2026-05-07 14:56 32.84246 -16.32476 15136 ft 396 kts 40°
2026-05-07 14:56 32.86242 -16.30188 15778 ft 401 kts 40°
2026-05-07 14:56 32.88258 -16.27877 16401 ft 406 kts 40°
2026-05-07 14:56 32.90303 -16.25530 17017 ft 411 kts 40°
2026-05-07 14:57 32.92356 -16.23173 17632 ft 416 kts 40°
2026-05-07 14:57 32.94448 -16.20770 18247 ft 420 kts 40°
2026-05-07 14:57 32.96539 -16.18367 18766 ft 426 kts 40°
2026-05-07 14:57 32.98676 -16.15909 19272 ft 430 kts 41°
2026-05-07 14:58 33.00841 -16.13418 19790 ft 435 kts 41°
2026-05-07 14:58 33.03026 -16.10900 20296 ft 440 kts 41°
2026-05-07 14:58 33.05242 -16.08345 20796 ft 445 kts 41°
2026-05-07 14:58 33.07476 -16.05767 21278 ft 450 kts 42°
2026-05-07 14:59 33.09734 -16.03161 21764 ft 455 kts 42°
2026-05-07 14:59 33.12024 -16.00514 22253 ft 460 kts 42°
2026-05-07 14:59 33.14301 -15.97881 22726 ft 464 kts 42°
2026-05-07 14:59 33.16628 -15.95188 23185 ft 470 kts 42°
2026-05-07 15:00 33.19020 -15.92420 23649 ft 474 kts 43°
2026-05-07 15:00 33.21396 -15.89665 24064 ft 478 kts 43°
2026-05-07 15:00 33.23754 -15.86929 24481 ft 481 kts 43°
2026-05-07 15:00 33.26168 -15.84127 24882 ft 485 kts 43°
2026-05-07 15:01 33.28590 -15.81313 25281 ft 488 kts 43°
2026-05-07 15:01 33.31032 -15.78474 25668 ft 492 kts 43°
2026-05-07 15:01 33.33485 -15.75618 26053 ft 495 kts 43°
2026-05-07 15:01 33.35967 -15.72728 26432 ft 499 kts 43°
2026-05-07 15:02 33.38457 -15.69826 26802 ft 502 kts 43°
2026-05-07 15:02 33.40931 -15.66939 27169 ft 505 kts 43°
2026-05-07 15:02 33.43459 -15.64005 27539 ft 507 kts 43°
2026-05-07 15:02 33.46031 -15.61099 27885 ft 510 kts 42°
2026-05-07 15:03 33.48633 -15.58192 28227 ft 513 kts 42°
2026-05-07 15:03 33.51252 -15.55266 28549 ft 516 kts 42°
2026-05-07 15:03 33.53881 -15.52319 28866 ft 519 kts 42°
2026-05-07 15:03 33.56522 -15.49351 29179 ft 522 kts 42°
2026-05-07 15:04 33.59176 -15.46362 29476 ft 525 kts 42°
2026-05-07 15:04 33.61842 -15.43353 29741 ft 528 kts 42°
2026-05-07 15:04 33.64515 -15.40331 30049 ft 530 kts 43°
2026-05-07 15:04 33.67168 -15.37331 30337 ft 532 kts 43°
2026-05-07 15:05 33.69859 -15.34284 30648 ft 533 kts 43°
2026-05-07 15:05 33.72569 -15.31211 30969 ft 534 kts 43°
2026-05-07 15:05 33.75267 -15.28150 31307 ft 534 kts 43°
2026-05-07 15:05 33.77966 -15.25086 31715 ft 533 kts 43°
2026-05-07 15:06 33.80654 -15.22031 32127 ft 531 kts 43°
2026-05-07 15:06 33.83329 -15.18988 32541 ft 529 kts 43°
2026-05-07 15:06 33.85960 -15.15992 32922 ft 527 kts 43°
2026-05-07 15:06 33.88622 -15.12958 33326 ft 525 kts 43°
2026-05-07 15:07 33.91305 -15.09897 33696 ft 524 kts 43°
2026-05-07 15:07 33.93940 -15.06890 34061 ft 522 kts 43°
2026-05-07 15:07 33.96573 -15.03880 34357 ft 521 kts 43°
2026-05-07 15:07 33.99198 -15.00878 34628 ft 520 kts 43°
2026-05-07 15:08 34.01774 -14.97930 34887 ft 519 kts 43°
2026-05-07 15:08 34.04394 -14.94928 35139 ft 518 kts 43°
2026-05-07 15:08 34.06987 -14.91954 35372 ft 518 kts 43°
2026-05-07 15:08 34.09586 -14.88971 35607 ft 517 kts 43°
2026-05-07 15:09 34.12234 -14.85928 35833 ft 517 kts 43°
2026-05-07 15:09 34.14837 -14.82935 35974 ft 517 kts 43°
2026-05-07 15:09 34.20040 -14.76943 36007 ft 516 kts 43°
2026-05-07 15:10 34.25201 -14.70990 36000 ft 516 kts 43°
2026-05-07 15:10 34.30399 -14.64984 35999 ft 517 kts 43°
2026-05-07 15:11 34.35588 -14.58978 36002 ft 517 kts 43°
2026-05-07 15:11 34.40788 -14.52946 35997 ft 518 kts 43°
2026-05-07 15:12 34.45959 -14.46939 36003 ft 518 kts 43°
2026-05-07 15:12 34.51158 -14.40887 36017 ft 519 kts 43°
2026-05-07 15:13 34.56362 -14.34820 36005 ft 519 kts 43°
2026-05-07 15:13 34.61558 -14.28749 36001 ft 517 kts 43°
2026-05-07 15:14 34.66741 -14.22684 35999 ft 517 kts 43°
2026-05-07 15:14 34.71910 -14.16623 35995 ft 517 kts 43°
2026-05-07 15:15 34.77093 -14.10534 35997 ft 517 kts 43°
2026-05-07 15:15 34.82200 -14.04525 35996 ft 517 kts 43°
2026-05-07 15:16 34.87372 -13.98427 35997 ft 517 kts 43°
2026-05-07 15:16 34.92539 -13.92324 35995 ft 517 kts 43°
2026-05-07 15:17 34.97701 -13.86216 35992 ft 517 kts 43°
2026-05-07 15:17 35.02825 -13.80142 35988 ft 517 kts 43°
2026-05-07 15:18 35.07982 -13.74017 35989 ft 517 kts 43°
2026-05-07 15:18 35.13130 -13.67892 35991 ft 517 kts 43°
2026-05-07 15:19 35.18284 -13.61748 35990 ft 517 kts 43°
2026-05-07 15:19 35.23433 -13.55598 35989 ft 517 kts 43°
2026-05-07 15:20 35.28542 -13.49485 35995 ft 517 kts 44°
2026-05-07 15:20 35.33688 -13.43316 35993 ft 517 kts 44°
2026-05-07 15:21 35.38821 -13.37151 35995 ft 517 kts 44°
2026-05-07 15:21 35.43959 -13.30968 35998 ft 517 kts 44°
2026-05-07 15:22 35.49081 -13.24793 35992 ft 517 kts 44°
2026-05-07 15:22 35.54201 -13.18609 35995 ft 516 kts 44°
2026-05-07 15:23 35.59320 -13.12414 35993 ft 516 kts 44°
2026-05-07 15:23 35.64432 -13.06217 35993 ft 516 kts 44°
2026-05-07 15:24 35.69534 -13.00019 35992 ft 515 kts 44°
2026-05-07 15:24 35.74629 -12.93818 35990 ft 515 kts 44°
2026-05-07 15:25 35.79683 -12.87655 35990 ft 514 kts 44°
2026-05-07 15:25 35.84761 -12.81451 35985 ft 514 kts 44°
2026-05-07 15:26 35.89831 -12.75245 35979 ft 513 kts 44°
2026-05-07 15:26 35.94891 -12.69039 35980 ft 513 kts 44°
2026-05-07 15:27 35.99951 -12.62825 35980 ft 513 kts 44°
2026-05-07 15:27 36.04965 -12.56660 35976 ft 512 kts 44°
2026-05-07 15:28 36.10118 -12.50574 35980 ft 512 kts 41°
2026-05-07 15:28 36.15377 -12.44646 35978 ft 511 kts 41°
2026-05-07 15:29 36.20616 -12.38684 35975 ft 511 kts 41°
2026-05-07 15:29 36.25833 -12.32702 35976 ft 511 kts 41°
2026-05-07 15:30 36.31044 -12.26708 35979 ft 511 kts 41°
2026-05-07 15:30 36.36257 -12.20701 35976 ft 511 kts 41°
2026-05-07 15:31 36.41426 -12.14734 35976 ft 511 kts 41°
2026-05-07 15:31 36.46625 -12.08720 35976 ft 511 kts 41°
2026-05-07 15:32 36.51823 -12.02696 35975 ft 511 kts 41°
2026-05-07 15:32 36.57014 -11.96668 35977 ft 511 kts 41°
2026-05-07 15:33 36.62211 -11.90623 35974 ft 511 kts 41°
2026-05-07 15:33 36.67399 -11.84572 35975 ft 511 kts 41°
2026-05-07 15:34 36.72579 -11.78521 35971 ft 511 kts 41°
2026-05-07 15:34 36.77765 -11.72452 35971 ft 511 kts 41°
2026-05-07 15:35 36.82938 -11.66388 35969 ft 511 kts 41°
2026-05-07 15:35 36.88112 -11.60309 35973 ft 510 kts 41°
2026-05-07 15:36 36.93275 -11.54233 35972 ft 510 kts 41°
2026-05-07 15:36 36.98497 -11.48074 35969 ft 510 kts 41°
2026-05-07 15:37 37.03628 -11.42011 35970 ft 510 kts 41°
2026-05-07 15:37 37.08771 -11.35921 35969 ft 510 kts 41°
2026-05-07 15:38 37.13918 -11.29816 35964 ft 509 kts 41°
2026-05-07 15:38 37.18968 -11.23814 35966 ft 509 kts 41°
2026-05-07 15:39 37.23305 -11.18650 35966 ft 509 kts 41°
2026-05-07 15:39 37.29303 -11.11494 35728 ft 509 kts 41°
2026-05-07 15:40 37.31867 -11.08430 35481 ft 508 kts 41°
2026-05-07 15:40 37.33554 -11.06412 35317 ft 508 kts 41°
2026-05-07 15:40 37.36985 -11.02307 34993 ft 508 kts 41°
2026-05-07 15:40 37.38673 -11.00284 34825 ft 508 kts 41°
2026-05-07 15:41 37.41237 -10.97209 34592 ft 508 kts 41°
2026-05-07 15:41 37.43800 -10.94133 34348 ft 508 kts 41°
2026-05-07 15:41 37.46375 -10.91038 34113 ft 509 kts 41°
2026-05-07 15:41 37.48955 -10.87936 33622 ft 511 kts 41°
2026-05-07 15:42 37.51530 -10.84838 32926 ft 512 kts 41°
2026-05-07 15:42 37.54086 -10.81758 32119 ft 513 kts 42°
2026-05-07 15:42 37.56678 -10.78633 31253 ft 515 kts 42°
2026-05-07 15:42 37.59253 -10.75524 30577 ft 513 kts 42°
2026-05-07 15:43 37.61829 -10.72409 30011 ft 508 kts 42°
2026-05-07 15:43 37.64361 -10.69344 29428 ft 502 kts 43°
2026-05-07 15:43 37.66865 -10.66310 28875 ft 495 kts 43°
2026-05-07 15:43 37.69273 -10.63390 28343 ft 489 kts 43°
2026-05-07 15:44 37.71798 -10.60325 27781 ft 483 kts 43°
2026-05-07 15:44 37.74206 -10.57399 27246 ft 477 kts 43°
2026-05-07 15:44 37.76583 -10.54509 26713 ft 472 kts 43°
2026-05-07 15:44 37.78936 -10.51646 26186 ft 467 kts 43°
2026-05-07 15:45 37.81264 -10.48810 25661 ft 462 kts 43°
2026-05-07 15:45 37.83571 -10.46000 25143 ft 458 kts 43°
2026-05-07 15:45 37.85847 -10.43216 24791 ft 450 kts 45°
2026-05-07 15:45 37.87954 -10.40370 24584 ft 439 kts 47°
2026-05-07 15:46 37.92167 -10.34736 23863 ft 441 kts 46°
2026-05-07 15:46 37.94274 -10.31928 23479 ft 438 kts 46°
2026-05-07 15:46 37.96359 -10.29139 23082 ft 433 kts 46°
2026-05-07 15:47 37.98443 -10.26341 22737 ft 430 kts 47°
2026-05-07 15:47 38.00489 -10.23590 22370 ft 428 kts 47°
2026-05-07 15:47 38.02551 -10.20808 22009 ft 426 kts 48°
2026-05-07 15:47 38.04366 -10.17916 21391 ft 426 kts 53°
2026-05-07 15:48 38.06138 -10.14922 20536 ft 423 kts 54°
2026-05-07 15:48 38.07890 -10.11936 19808 ft 417 kts 54°
2026-05-07 15:48 38.09598 -10.09024 19124 ft 411 kts 54°
2026-05-07 15:48 38.11303 -10.06122 18443 ft 405 kts 54°
2026-05-07 15:49 38.12994 -10.03245 17698 ft 398 kts 54°
2026-05-07 15:49 38.14634 -10.00453 16943 ft 392 kts 54°
2026-05-07 15:49 38.16255 -9.97694 16225 ft 386 kts 54°
2026-05-07 15:49 38.17845 -9.94985 15514 ft 380 kts 54°
2026-05-07 15:50 38.19410 -9.92317 14825 ft 374 kts 54°
2026-05-07 15:50 38.20956 -9.89680 14143 ft 369 kts 54°
2026-05-07 15:50 38.22479 -9.87081 13458 ft 364 kts 54°
2026-05-07 15:50 38.23973 -9.84527 12704 ft 359 kts 54°
2026-05-07 15:51 38.25458 -9.81987 11962 ft 355 kts 54°
2026-05-07 15:51 38.26923 -9.79480 11262 ft 351 kts 54°
2026-05-07 15:51 38.28366 -9.77008 10554 ft 347 kts 54°
2026-05-07 15:51 38.29767 -9.74607 10163 ft 334 kts 54°
2026-05-07 15:52 38.31127 -9.72278 9981 ft 314 kts 54°
2026-05-07 15:52 38.32379 -9.70130 9800 ft 296 kts 54°
2026-05-07 15:52 38.33577 -9.68073 9477 ft 287 kts 54°
2026-05-07 15:52 38.34757 -9.66041 9085 ft 285 kts 54°
2026-05-07 15:53 38.35929 -9.64023 8732 ft 282 kts 54°
2026-05-07 15:53 38.37107 -9.61994 8358 ft 281 kts 54°
2026-05-07 15:53 38.38265 -9.60000 8031 ft 277 kts 54°
2026-05-07 15:53 38.39393 -9.58054 7660 ft 277 kts 54°
2026-05-07 15:54 38.40533 -9.56088 7310 ft 275 kts 54°
2026-05-07 15:54 38.41668 -9.54131 6982 ft 273 kts 54°
2026-05-07 15:54 38.42793 -9.52189 6663 ft 271 kts 54°
2026-05-07 15:54 38.43948 -9.50195 6322 ft 268 kts 54°
2026-05-07 15:55 38.45029 -9.48329 5954 ft 268 kts 54°
2026-05-07 15:55 38.46133 -9.46419 5599 ft 266 kts 54°
2026-05-07 15:55 38.47225 -9.44529 5253 ft 264 kts 54°
2026-05-07 15:55 38.48300 -9.42667 4906 ft 263 kts 54°
2026-05-07 15:56 38.49386 -9.40785 4551 ft 262 kts 53°
2026-05-07 15:56 38.50478 -9.38890 4219 ft 260 kts 53°
2026-05-07 15:56 38.51535 -9.37056 4113 ft 259 kts 53°
2026-05-07 15:56 38.52618 -9.35176 4025 ft 261 kts 53°
2026-05-07 15:57 38.53666 -9.33357 4004 ft 247 kts 53°
2026-05-07 15:57 38.54653 -9.31642 4001 ft 234 kts 53°
2026-05-07 15:57 38.55590 -9.30016 4001 ft 221 kts 53°
2026-05-07 15:57 38.56493 -9.28448 4010 ft 220 kts 53°
2026-05-07 15:58 38.57409 -9.26858 4004 ft 221 kts 53°
2026-05-07 15:58 38.58322 -9.25285 4004 ft 222 kts 50°
2026-05-07 15:58 38.59392 -9.23959 4023 ft 204 kts 34°
2026-05-07 15:58 38.60591 -9.23031 3834 ft 194 kts 25°
2026-05-07 15:59 38.61896 -9.22265 3530 ft 197 kts 20°
2026-05-07 15:59 38.63142 -9.21607 3280 ft 200 kts 19°
2026-05-07 15:59 38.64422 -9.20917 2971 ft 192 kts 18°
2026-05-07 15:59 38.65632 -9.20275 2712 ft 180 kts 18°
2026-05-07 16:00 38.66459 -9.19831 2537 ft 172 kts 18°
2026-05-07 16:00 38.67834 -9.19097 2255 ft 166 kts 17°
2026-05-07 16:00 38.68527 -9.18730 2091 ft 164 kts 18°
2026-05-07 16:00 38.69561 -9.18173 1885 ft 154 kts 15°
2026-05-07 16:01 38.70516 -9.17663 1701 ft 142 kts 17°
2026-05-07 16:01 38.71403 -9.17192 1512 ft 141 kts 15°
2026-05-07 16:01 38.72360 -9.16679 1300 ft 144 kts 15°
2026-05-07 16:01 38.73249 -9.16195 1102 ft 139 kts 16°
2026-05-07 16:02 38.74122 -9.15729 928 ft 136 kts 15°
2026-05-07 16:02 38.75070 -9.15234 728 ft 140 kts 18°
2026-05-07 16:02 38.75972 -9.14739 548 ft 142 kts 18°
2026-05-07 16:02 38.76865 -9.14271 368 ft 139 kts 18°
2026-05-07 16:03 38.77662 -9.13849 365 ft 96 kts 23°
2026-05-07 16:03 38.78102 -9.13609 368 ft 39 kts 26°
2026-05-07 16:03 38.78311 -9.13438 369 ft 17 kts 44°
2026-05-07 16:03 38.78377 -9.13332 362 ft 15 kts 71°
2026-05-07 16:04 38.78306 -9.13269 358 ft 16 kts 200°
2026-05-07 16:04 38.78194 -9.13330 359 ft 18 kts 203°
2026-05-07 16:04 38.78077 -9.13393 361 ft 20 kts 202°
2026-05-07 16:04 38.77941 -9.13466 359 ft 22 kts 202°
2026-05-07 16:05 38.77791 -9.13546 358 ft 24 kts 203°
2026-05-07 16:05 38.77671 -9.13607 357 ft 11 kts 200°
2026-05-07 16:05 38.77643 -9.13621 358 ft 3 kts 202°
2026-05-07 16:05 38.77603 -9.13644 358 ft 10 kts 204°
2026-05-07 16:06 38.77553 -9.13672 360 ft 14 kts 202°
2026-05-07 16:06 38.77438 -9.13733 364 ft 21 kts 201°
2026-05-07 16:06 38.77282 -9.13818 357 ft 24 kts 201°
2026-05-07 16:06 38.77152 -9.13888 358 ft 18 kts 201°
2026-05-07 16:07 38.77021 -9.13878 356 ft 20 kts 168°
2026-05-07 16:07 38.76884 -9.13841 347 ft 18 kts 168°
2026-05-07 16:07 38.76770 -9.13811 345 ft 11 kts 173°
2026-05-07 16:07 38.76746 -9.13870 344 ft 7 kts 264°
2026-05-07 16:08 38.76741 -9.13898 348 ft 2 kts 257°
2026-05-07 16:08 38.76740 -9.13902 347 ft 0 kts 257°